Regional Weather Roundup
Issued by NWS Sterling, VA

Home | Current Version | Previous Version | Graphics & Text | Print | Product List | Glossary On
Versions: 1 2 3 4 5 6 7 8 9 10 11 12 13 14 15 16 17 18 19 20 21 22 23 24 25 26 27 28 29 30 31 32 33 34 35 36 37 38 39 40 41 42 43 44 45 46 47 48 49 50
000
ASUS41 KLWX 051610
RWRLWX

REGIONAL WEATHER ROUNDUP
NATIONAL WEATHER SERVICE BALTIMORE MD/WASHINGTON DC
1200 PM EDT SUN JUL 05 2015

Note: "FAIR" indicates few or no clouds below 12,000 feet
with no significant weather and/or obstructions to visibility.
 TC=TEMPERATURE CELSIUS

 * =Non NWS site. Station does not report precipitation (e.g. rain,
    snow, etc.), thunder, or fog.

DCZ001-MDZ009-015-VAZ040>042-051-053>054-051700-
WASHINGTON METRO

CITY           SKY/WX    TMP DP  RH WIND       PRES   REMARKS
WASHINGTON NAT PTSUNNY   81  68  64 CALM      30.15F
DULLES         PTSUNNY   75  68  78 NW3       30.16S
ANDREWS AFB    PTSUNNY   76  74  96 SE5       30.15F
FT BELVOIR     MOSUNNY   78  68  72 SE2       30.15F
QUANTICO       MOSUNNY   76  68  76 S3        30.16S
COLLEGE PARK*  MOSUNNY   77  68  73 E3        30.15S
LEESBURG*      PTSUNNY   73  70  88 S5        30.18S
GAITHERSBURG*  PTSUNNY   75  68  78 CALM      30.20S

$$

MDZ006>007-011-014-051700-
BALTIMORE METRO

CITY           SKY/WX    TMP DP  RH WIND       PRES   REMARKS
BWI AIRPORT    PTSUNNY   77  65  66 VRB3      30.15S
MD SCIENCE CTR   N/A     78  65  63 MISG      30.16F
MARTIN STATE   PTSUNNY   77  70  78 S7        30.17S
ANNAPOLIS      MOSUNNY   76  66  71 SE7       30.15S
FORT MEADE*    PTSUNNY   77  64  65 E5        30.17F

$$

MDZ012-015-019>023-051700-
MARYLAND EASTERN SHORE

CITY           SKY/WX    TMP DP  RH WIND       PRES   REMARKS
OCEAN CITY     MOSUNNY   76  69  79 SE5       30.16S
SALISBURY      MOSUNNY   78  69  73 CALM      30.15S
BAY BRIDGE AP*   N/A     75  66  73 NW6       30.16S
CAMBRIDGE*     MOSUNNY   79  66  65 E3        30.15S
EASTON*        MOSUNNY   81  68  65 NE6       30.19S

$$

MDZ017>025-051700-
SOUTHERN MARYLAND

CITY           SKY/WX    TMP DP  RH WIND       PRES   REMARKS
PATUXENT RIVER CLOUDY    77  68  73 SE8       30.15S
ST INIGOES     NOT AVBL
LEONARDTOWN*   CLOUDY    77  68  73 E3        30.17S

$$

MDZ003>005-051700-
NORTH CENTRAL MARYLAND

CITY           SKY/WX    TMP DP  RH WIND       PRES   REMARKS
FREDERICK*     PTSUNNY   75  70  83 NE5       30.18F
HAGERSTOWN APT MOSUNNY   77  65  66 NW3       30.16F
WESTMINSTER*   MOSUNNY   73  72  94 CALM      30.17F

$$

MDZ501>502-051700-
WESTERN MARYLAND

CITY           SKY/WX    TMP DP  RH WIND       PRES   REMARKS
OAKLAND*       MOSUNNY   70 N/A N/A S7        30.23R
CUMBERLAND*    MOSUNNY   77  64  65 S6        30.19S

$$

VAZ025>031-051700-
SHENANDOAH VALLEY

CITY           SKY/WX    TMP DP  RH WIND       PRES   REMARKS
WINCHESTER*    PTSUNNY   77  68  73 SE5       30.17S
FRONT ROYAL*   FAIR      73  68  83 NE3       30.15F
LURAY*         CLOUDY    77  70  78 CALM      30.16F
NEW MARKET*    CLOUDY    76  69  79 NE3       30.15S
STAUNTON*      PTSUNNY   77  69  75 CALM      30.19S
WAYNESBORO*    FAIR      74  67  79 SE8       30.19R

$$

WVZ021-048>050-054>055-051700-
EASTERN WEST VIRGINIA PANHANDLE

CITY           SKY/WX    TMP DP  RH WIND       PRES   REMARKS
MARTINSBURG    CLOUDY    73  65  75 CALM      30.17S
PETERSBURG*    MOSUNNY   78  61  55 CALM      30.16F

$$

VAZ036>039-050-051700-
CENTRAL FOOTHILLS

CITY           SKY/WX    TMP DP  RH WIND       PRES   REMARKS
CHARLOTTESVILL CLOUDY    74  69  85 NE6       30.17S
CULPEPER*      CLOUDY    72  69  88 CALM      30.17S
ORANGE*        CLOUDY    72  70  94 CALM      30.18S FOG
GORDONSVILLE*  CLOUDY    72  70  94 N6        30.16F
WARRENTON*     CLOUDY    74  71  91 SE3       30.16S

$$

VAZ055>057-051700-
NORTH AND CENTRAL PIEDMONT

CITY           SKY/WX    TMP DP  RH WIND       PRES   REMARKS
FREDERICKSBRG* PTSUNNY   80  73  79 E5        30.15S
STAFFORD*      CLOUDY    76  68  77 CALM      30.20S

$$

NCZ024-NYZ072-PAZ021-071-VAZ022-071-051700-
OTHER REGIONAL OBSERVATIONS

CITY           SKY/WX    TMP DP  RH WIND       PRES   REMARKS
NEW YORK CITY  SUNNY     79  62  56 CALM      30.15F
PHILADELPHIA   PTSUNNY   79  62  56 S5        30.15S
PITTSBURGH     CLOUDY    75  55  49 NE5       30.16R
ROANOKE        CLOUDY    74  68  81 SE6       30.18S
RICHMOND       PTSUNNY   81  71  71 E3        30.15S
RALEIGH        PTSUNNY   87  73  62 SW8       30.12F HX  94

$$

ANZ530>537-051700-
MARINE OBSERVATIONS

STATION/POSITION TIME  TEMP    WIND        PRES
                       AIR SEA DIR/SP/G
                 (UTC) (F)     (DEG/KT/KT) (MB)
THOMAS PT LIGHT  NOT AVBL
BALT KEY BRIDGE  1500   72     120/  3/  4 1021.0R
COVE POINT       1500   74     100/  3/  4 1021.8R
LEWISETTA        1500   76 79   90/  5/  7 1020.8R
SOLOMONS ISLAND  1500      79                N/A
PINEY POINT      1500          140/  5/  5   N/A

$$




USA.gov is the U.S. government's official web portal to all federal, state and local government web resources and services.